Regional Weather Roundup
Issued by NWS

Home | Current Version | Previous Version | Graphics & Text | Print | Product List | Glossary On
Versions: 1 2 3 4 5 6 7 8 9 10 11 12 13 14 15 16 17 18 19 20 21 22 23 24 25 26 27 28 29 30 31 32 33 34 35 36 37 38 39 40 41 42 43 44 45 46 47 48 49 50
000
ASUS43 KMKX 231011
RWRWI

WISCONSIN REGIONAL WEATHER ROUNDUP
NATIONAL WEATHER SERVICE MILWAUKEE/SULLIVAN WI
500 AM CDT SAT JUL 23 2016

NOTE: "FAIR" INDICATES FEW OR NO CLOUDS BELOW 12,000 FEET WITH NO
SIGNIFICANT WEATHER AND/OR OBSTRUCTIONS TO VISIBILITY.

WIZ001-002-006>008-014>016-023>028-231100-
NORTHWEST WISCONSIN

CITY           SKY/WX    TMP DP  RH WIND       PRES   REMARKS
SUPERIOR ARPT  MOCLDY    60  60 100 CALM      29.99S FOG
ASHLAND        PTCLDY    59  59 100 SW3       30.01S
HAYWARD        PTCLDY    63  61  93 NE3       30.02S
SIREN          PTCLDY    66  64  94 CALM      30.00S
CUMBERLAND     CLEAR     66  64  94 CALM      30.01S
RICE LAKE      CLEAR     66  65  95 CALM      30.02R
CHETEK         CLEAR     66  66 100 CALM      30.01R
LADYSMITH      PTCLDY    66  64  94 CALM      30.03S
EAU CLAIRE     CLEAR     66  66 100 CALM      29.98R
MENOMONIE      PTCLDY    67  66  96 CALM      29.99S
NEW RICHMOND   CLOUDY    65  65  98 CALM      30.00R
OSCEOLA        CLEAR     67  67 100 CALM      30.01S
$$

WIZ003>005-009-010-017-018-231100-
NORTH CENTRAL WISCONSIN

CITY           SKY/WX    TMP DP  RH WIND       PRES   REMARKS
MANITOWISH WTR PTCLDY    58  58 100 CALM      30.04S FOG
ARBOR VITAE    PTCLDY    62  60  95 CALM      30.04S
WOODRUFF       PTCLDY    62  60  95 CALM      30.04S
RHINELANDER    FOG       62  61  96 CALM      30.05R VSB 3/4
EAGLE RIVER    FOG       56  56 100 CALM      30.04R VSB 3/4
LAND O LAKES     N/A     55  55 100 CALM      30.06R FOG
PHILLIPS       CLEAR     62  62 100 CALM      30.03S
TOMAHAWK       PTCLDY    58  57  96 CALM      30.05R
MEDFORD        PTCLDY    64  64 100 NE3       30.02S
MERRILL        MOCLDY    60  60 100 CALM      30.04R
$$

WIZ029-030-035-036-043>047-231100-
CENTRAL WISCONSIN

CITY           SKY/WX    TMP DP  RH WIND       PRES   REMARKS
WAUSAU         MOCLDY    67  65  93 CALM      30.01R
MOSINEE        PTCLDY    66  66 100 CALM      30.03R
MARSHFIELD     PTCLDY    66  63  90 NE5       30.00S
STEVENS POINT  PTCLDY    63  62  97 CALM      30.02R
WAUPACA        CLEAR     66  66  99 CALM      29.99R
WAUTOMA        CLEAR     66  65  96 CALM      29.99S
WISC RAPIDS    CLEAR     64  62  93 CALM      30.01R FOG
CAMP DOUGLAS   MOCLDY    63  63 100 S1        29.99S FOG
$$

WIZ011>013-019>022-031-037>040-048>050-231100-
NORTHEAST WISCONSIN

CITY           SKY/WX    TMP DP  RH WIND       PRES   REMARKS
ANTIGO         PTCLDY    62  62  99 CALM      30.05R
SHAWANO        CLOUDY    68  67  95 CALM      29.99S
OCONTO         CLOUDY   N/A N/A N/A CALM      29.98R
STURGEON BAY   CLOUDY    69  68  96 CALM      29.99R
GREEN BAY      PTCLDY    67  67 100 CALM      29.98R
MANITOWOC      CLEAR     69  67  93 N5        29.97S
APPLETON       CLEAR     70  63  78 CALM      29.98R
CLINTONVILLE   PTCLDY    64  64 100 CALM      29.99S
OSHKOSH          N/A     67  65  93 CALM      29.98R
$$

WIZ032>034-041-042-053>061-231100-
SOUTHWEST WISCONSIN

CITY           SKY/WX    TMP DP  RH WIND       PRES   REMARKS
LA CROSSE      MOCLDY    75  74  96 E5        29.96S
SPARTA         CLEAR     64  64 100 CALM      29.99F
VIROQUA        CLOUDY    75  75 100 CALM      30.01S
BOSCOBEL       FOG       77  76  96 CALM      29.98S VSB 1/4
PRAIRIE DU CHI CLOUDY    76  74  94 CALM      29.98R
PLATTEVILLE    CLOUDY    76  76 100 CALM      30.00S
$$

WIZ056-057-062-063-064-067-068-231100-
SOUTH CENTRAL WISCONSIN

CITY           SKY/WX    TMP DP  RH WIND       PRES   REMARKS
REEDSBURG      FOG       71  71 100 CALM      29.99S VSB 1/4
BARABOO/DELLS  FOG       71  69  95 CALM      30.00S VSB 1/4
LONE ROCK      FOG       75  75 100 E3        29.99S VSB 1/4
MINERAL POINT  CLOUDY    77  75  94 CALM      30.01S FOG
MADISON        FOG       73  72  96 CALM      29.98S VSB 3/4
MIDDLETON      MOCLDY    73  73 100 CALM      30.00S
WATERTOWN      FOG       71  71 100 CALM      29.99S VSB 1/4
MONROE         CLOUDY    75  73  94 CALM      30.00S
JANESVILLE     MOCLDY    75  73  94 CALM      29.98S
$$

WIZ051-052-058>065-066-070>072-231100-
SOUTHEAST WISCONSIN

CITY           SKY/WX    TMP DP  RH WIND       PRES   REMARKS
MILWAUKEE      PTCLDY    75  71  87 CALM      29.97S
WAUKESHA       FOG       70  68  94 CALM      30.00S VSB<1/4
MILWAUKEE/TIMM CLEAR     73  70  88 CALM      29.98S FOG
RACINE         CLEAR     76  74  93 W6        29.99S
BURLINGTON     FOG       71  71  99 CALM      29.99R VSB 1/2
KENOSHA        CLOUDY    75  74  96 CALM      29.98S FOG
FOND DU LAC    FOG       70  68  93 SW5       29.98S VSB 1/4
SHEBOYGAN      CLEAR     68  67  96 CALM      29.97S FOG
WEST BEND      PTCLDY    68  68 100 CALM      29.98F
JUNEAU         FOG       71  71  99 CALM      30.01R VSB<1/4
$$

LSZ147-162-231100-
LAKE SUPERIOR

STATION/POSITION TIME  TEMP    WIND        PRES    WAVE
                       AIR SEA DIR/SP/G            HT/PER
                 (UTC) (F)     (DEG/KT/KT) (MB)    (FT/S)
W MID LAKE BUOY  0950   62 57  310/  8/  8 1014.8R   0
DEVILS ISLAND    1000   69     240/  6/  6 1015.6R
SAXON HARBOR     0900   65     200/  5/  5 1015.6R
$$

LMZ867-665-643>646-231100-
LAKE MICHIGAN

STATION/POSITION TIME  TEMP    WIND        PRES    WAVE
                       AIR SEA DIR/SP/G            HT/PER
                 (UTC) (F)     (DEG/KT/KT) (MB)    (FT/S)
CHAMBERS ISLAND  0900   71     270/  3/  4 1014.6S
S GREEN BAY BUOY 0900   74 74  230/  2/  2   N/A
N MID LAKE BUOY  0950   69 68  250/  6/  6 1013.7R   1/ 3
NORTHPORT PIER   0900   73     290/  5/  7 1014.6R
KEWAUNEE LAKESHO 0900   71     300/  5/  6 1014.2S
SHEBOYGAN LAKESH 1000   69        CALM     1014.6F
PORT WASHINGTON  0900   63     290/  3/  5 1015.6S
MILWAUKEE LAKESH 0910   70     180/  2/  2   N/A
S MID LAKE BUOY  0950   75 73  180/  4/  4 1014.1F   0
KENOSHA   LAKESH 1000   77     280/  3/  4 1014.6F
$$

TC  - TEMPERATURE IN CELSIUS
VSB - VISIBILITY IN STATUTE MILES
WCI - WIND CHILL INDEX
HX  - HEAT INDEX




USA.gov is the U.S. government's official web portal to all federal, state and local government web resources and services.